Tracking 19564 objects as of 19-Mar-2019
HD Live streaming from Space Station
objects crossing your sky now

ATLAS CENTAUR R/B

Track ATLAS CENTAUR R/B now!
10-day predictions
ATLAS CENTAUR R/B is classified as:


NORAD ID: 38770
Int'l Code: 2012-048N
Perigee: 453.1 km
Apogee: 711.7 km
Inclination: 64.7 °
Period: 96.2 minutes
Semi major axis: 6953 km
RCS: Unknown
Launch date: September 13, 2012
Source: United States (US)
Launch site: AIR FORCE WESTERN TEST RANGE (AFWTR)

Note: This is a ROCKET BODY
aabbcc
Your satellite tracking list
Your tracking list is empty




NASA's NSSDC Master Catalog

Two Line Element Set (TLE):
1 38770U 12048N   19072.15624223 0.00000500  00000-0  29971-4 0    04
2 38770  64.6506 179.7291 0186000 277.3313  82.6687 14.97292344    03
Source of the keplerian elements: McCants